Wind_Speed
20 22 22 25 23 24 29 28 30 30 28 28 37 47 48 47 47 40 30 27 27 27 24 20 13 15 18 13 18 28 27 29 26 21 20 17 17 15 17 20 22 23 21
23 23 23 23 19 26 29 24 24 28 30 25 32 36 50 47 51 46 37 28 27 24 24 25 17 17 19 16 18 28 24 22 22 19 19 19 15 15 14 15 16 20 18
28 29 23 20 20 23 30 21 19 24 28 25 24 28 29 36 37 43 47 38 29 23 27 26 23 19 14 18 18 23 25 19 25 20 17 20 17 14 15 11 13 16 11
29 25 22 23 22 22 25 21 15 20 24 25 21 22 19 12 13 24 35 37 39 30 33 30 24 27 19 20 22 26 28 19 18 20 17 18 16 14 11 9 10 11 14
27 25 24 24 21 23 27 18 12 19 24 24 20 19 19 16 13 15 20 34 34 32 38 36 25 29 23 25 26 29 32 21 17 21 24 20 19 16 15 13 12 13 17
30 29 25 23 23 18 19 22 12 15 22 23 22 22 26 21 20 19 23 28 38 41 36 35 30 30 25 28 29 30 33 19 17 20 25 24 20 17 16 17 19 18 21
32 31 28 24 22 18 20 22 14 16 20 23 23 26 29 27 24 19 27 27 42 49 44 37 27 29 29 29 30 24 25 17 21 26 27 27 24 19 17 18 19 20 21
33 31 31 27 22 18 21 20 16 18 24 21 22 20 27 29 27 26 26 29 29 54 53 49 40 35 33 29 29 23 27 30 22 22 23 26 25 22 18 19 19 21 25
32 31 31 31 27 25 21 19 15 16 27 25 23 21 24 30 31 30 31 31 28 54 49 43 40 33 35 30 26 24 24 33 20 19 20 24 26 23 19 19 21 22 24
34 33 33 33 29 26 24 18 17 14 24 25 28 28 29 28 25 34 30 23 25 40 59 47 50 39 37 30 29 29 23 25 17 17 21 25 27 29 22 19 20 24 25
35 35 33 34 32 29 26 19 18 18 19 24 31 28 30 34 37 35 31 24 29 37 44 44 44 44 37 26 28 27 24 21 18 20 22 24 26 27 26 23 22 21 24
35 34 34 31 32 31 28 23 22 21 21 22 28 35 34 37 36 30 29 33 33 39 44 44 43 39 37 29 24 29 30 29 28 22 23 23 25 28 29 25 25 26 24
30 33 33 32 30 30 29 25 25 23 25 25 27 38 42 39 35 32 31 28 33 36 48 49 45 41 40 37 33 34 32 30 24 25 25 25 29 32 36 32 28 29 27
26 28 31 29 29 30 28 26 26 23 26 28 33 38 42 42 38 35 30 27 31 35 45 47 43 38 39 31 39 39 35 32 30 25 27 27 30 33 38 36 32 27 28
20 20 25 26 25 27 27 27 24 22 28 27 29 33 36 38 34 34 29 24 28 33 37 42 41 39 37 34 32 31 32 34 34 25 25 28 30 34 39 35 33 28 25
15 14 15 13 15 20 24 23 22 19 25 24 27 28 32 33 33 29 26 24 26 26 33 38 38 39 38 37 32 36 37 39 34 29 28 29 29 36 41 37 36 32 30
26 19 7 8 15 15 18 19 21 19 22 20 23 24 28 30 32 30 26 28 29 30 29 34 36 36 35 35 32 28 31 35 31 31 33 32 33 35 36 36 35 32 30
35 40 28 18 45 53 43 26 20 24 23 28 22 25 27 31 34 34 30 33 38 38 35 34 40 39 36 36 37 35 35 35 32 33 36 36 32 33 38 37 33 28 25
45 51 48 49 34 42 48 40 31 30 34 28 23 24 31 31 33 34 37 38 40 41 45 46 45 44 44 42 41 41 40 39 37 37 40 35 33 34 40 39 33 28 27
50 54 59 65 59 52 65 51 49 44 36 40 36 31 34 33 38 37 39 41 40 41 39 46 48 49 47 45 45 45 43 41 40 42 40 38 37 37 42 42 34 29 24
57 59 66 69 69 65 71 61 62 65 48 42 47 43 41 41 36 37 38 43 40 41 41 43 42 47 50 46 42 42 43 44 44 42 41 42 44 44 41 45 41 35 33
60 62 67 73 68 74 73 63 71 72 70 65 56 57 51 49 42 34 36 43 48 47 45 43 41 43 44 45 47 48 49 48 48 48 42 43 47 47 48 49 44 39 35
59 66 70 75 82 80 71 76 73 70 67 64 68 62 59 58 50 39 39 42 47 43 47 48 49 48 48 49 50 49 51 54 54 46 47 48 50 53 54 50 48 41 36
62 64 71 74 80 81 73 84 83 78 77 66 66 58 58 68 61 44 45 49 54 53 55 58 59 54 54 53 55 57 59 57 53 50 49 53 54 57 58 53 45 41 39
59 65 68 73 76 82 79 88 93 87 85 88 70 66 59 68 63 60 53 52 54 53 53 57 60 64 64 64 62 62 61 56 51 55 54 53 54 50 49 46 40 41 44
60 63 70 75 78 80 86 89 91 90 92 97 82 78 74 70 69 59 59 63 63 64 61 55 59 62 64 66 68 66 63 63 61 60 57 49 48 47 44 42 43 42 42
Wind_Direction
264 265 277 285 304 323 316 289 265 241 225 225 223 220 219 221 219 223 241 235 240 245 247 265 274 290 315 321 331 350 357 1 360 360 352 355 359 350 354 344 350 2 10
261 261 273 277 301 328 327 296 263 241 225 220 220 221 222 225 229 238 246 244 237 233 243 257 253 262 289 294 303 325 336 359 1 354 351 342 347 356 9 15 14 21 25
248 260 258 268 290 314 330 310 254 238 219 219 218 215 220 229 238 240 242 238 234 234 235 245 253 259 298 291 299 311 322 347 345 353 350 343 326 335 359 16 13 15 6
248 245 259 275 290 315 331 314 261 225 215 214 214 204 206 220 245 245 240 237 239 239 231 245 249 248 277 300 288 302 310 323 342 354 349 332 317 309 330 341 347 334 352
250 237 250 260 285 310 326 323 282 222 208 212 209 209 195 209 224 255 259 229 233 223 230 238 232 242 273 287 290 295 300 302 341 352 357 341 324 291 296 314 332 334 337
245 243 235 259 273 296 316 326 278 225 205 207 207 218 207 205 211 229 254 236 222 223 234 233 226 268 262 267 282 291 308 314 334 355 357 346 334 304 292 297 308 319 322
246 239 235 247 263 288 305 330 283 221 212 199 203 212 210 213 228 225 254 258 228 223 225 229 245 241 256 267 276 283 307 300 331 337 351 356 345 324 288 285 296 313 320
242 243 236 241 252 270 281 309 304 222 205 211 210 221 216 220 225 239 249 261 245 214 227 238 236 237 249 261 263 277 302 302 320 338 352 357 354 335 300 287 296 306 310
237 239 232 238 244 258 275 298 311 232 213 225 212 207 215 223 225 223 233 254 255 217 225 224 234 240 247 254 270 272 296 307 315 334 352 353 356 345 318 293 289 294 301
236 234 231 233 239 251 266 287 286 277 243 227 221 213 221 217 222 228 232 250 254 227 225 234 235 240 248 252 266 272 291 295 312 330 341 344 347 345 329 312 297 292 293
239 234 234 229 239 245 253 270 277 285 265 239 226 223 227 218 225 237 243 249 260 236 227 229 233 238 236 245 258 261 294 283 313 317 329 337 342 341 334 319 307 304 299
239 236 236 235 236 240 248 259 267 275 280 255 238 233 226 227 239 244 248 253 246 241 225 227 229 228 236 253 262 267 265 280 298 310 321 329 338 335 330 322 311 304 300
241 238 239 237 240 241 244 250 266 278 285 265 245 234 231 231 247 251 251 246 242 239 224 223 229 235 243 241 251 262 271 286 292 305 313 323 331 330 327 322 313 304 299
240 237 241 242 242 242 245 252 264 277 291 280 254 239 234 233 241 252 252 245 243 240 228 225 230 235 236 238 263 262 266 276 280 315 319 316 323 327 325 319 320 314 302
250 240 237 241 244 247 249 253 261 272 285 284 256 240 234 230 237 247 243 246 243 229 222 226 230 234 229 238 254 260 266 271 280 305 321 315 317 321 323 321 320 317 309
279 252 245 251 256 259 259 260 267 273 284 278 256 245 233 233 235 237 237 235 230 226 226 226 228 236 235 244 259 259 270 272 274 298 314 310 314 319 325 321 321 319 313
307 265 215 64 16 348 307 288 289 298 300 283 255 245 236 232 235 235 236 239 233 228 230 230 230 233 240 249 256 267 268 270 279 298 312 308 306 316 317 315 320 321 316
198 229 184 180 283 289 292 299 270 272 288 298 282 244 242 238 231 230 233 238 237 236 233 233 235 238 243 247 254 262 261 269 276 299 304 301 300 310 312 312 313 314 319
205 203 190 192 210 241 265 259 259 252 264 276 282 272 253 242 238 236 229 231 232 235 234 237 242 245 246 253 256 264 265 269 282 288 296 297 291 296 310 306 306 314 315
210 204 196 198 201 226 216 225 225 235 247 245 261 261 261 252 233 236 240 237 236 241 239 240 245 247 249 256 258 259 263 271 275 283 285 285 281 290 307 305 300 310 309
215 210 202 198 209 213 209 226 211 222 216 229 241 244 243 253 245 235 235 237 240 241 237 240 242 242 246 249 251 257 264 271 271 275 279 279 283 289 298 304 296 295 300
222 215 209 210 207 210 219 220 217 215 219 223 226 230 235 242 249 243 243 244 246 242 243 242 238 239 242 248 250 254 259 263 268 275 275 280 282 287 294 299 292 288 291
228 221 214 214 214 216 225 215 210 211 215 213 223 226 228 232 237 237 242 244 251 256 251 247 250 245 243 245 248 251 256 262 268 266 270 277 279 282 290 294 292 283 285
229 227 219 221 221 221 224 217 217 215 213 212 219 221 232 222 230 240 236 250 248 250 251 251 250 256 260 253 255 258 259 262 266 267 271 273 275 283 290 290 281 272 276
229 228 226 223 227 226 226 220 223 224 217 220 223 220 227 227 226 226 232 231 243 242 248 249 252 256 259 259 254 256 258 258 259 263 268 274 282 288 285 280 272 272 278
233 227 227 226 224 226 226 228 226 224 222 222 223 218 219 223 225 224 225 230 239 236 248 253 255 252 256 259 260 260 260 260 262 265 269 273 277 281 283 276 272 273 279
Height
10983 10985 10986 10986 10984 10982 10977 10971 10969 10971 10974 10978 10982 10988 10995 11003 11008 11014 11017 11021 11024 11029 11030 11033 11034 11036 11037 11037 11035 11030 11026 11020 11015 11010 11009 11008 11005 11002 11000 10998 10995 10992 10988
10976 10978 10981 10981 10979 10975 10971 10964 10962 10963 10967 10971 10976 10981 10988 10995 11001 11005 11011 11014 11018 11021 11025 11028 11029 11032 11032 11033 11033 11030 11025 11020 11015 11010 11007 11007 11004 11002 11000 10998 10995 10992 10990
10970 10971 10974 10975 10973 10972 10966 10959 10956 10957 10961 10966 10971 10975 10982 10989 10995 11000 11004 11009 11012 11014 11020 11023 11025 11028 11029 11028 11028 11026 11023 11020 11016 11009 11006 11005 11003 11001 10998 10997 10994 10992 10990
10963 10967 10968 10967 10967 10965 10964 10956 10953 10954 10957 10963 10967 10971 10978 10984 10989 10991 10995 11000 11003 11007 11012 11017 11020 11024 11026 11026 11025 11023 11021 11018 11014 11008 11003 11001 10999 10998 10998 10996 10995 10992 10989
10955 10959 10962 10964 10964 10963 10957 10954 10952 10952 10954 10959 10965 10971 10975 10980 10983 10987 10991 10996 10997 11002 11006 11010 11015 11019 11022 11023 11022 11020 11020 11014 11010 11007 11001 10998 10996 10994 10995 10994 10992 10990 10986
10948 10951 10956 10959 10961 10959 10957 10953 10951 10951 10953 10957 10962 10966 10970 10975 10978 10983 10986 10991 10993 10995 10999 11004 11009 11013 11016 11018 11018 11018 11016 11012 11010 11005 11000 10997 10992 10990 10991 10991 10989 10986 10984
10940 10945 10949 10953 10956 10956 10950 10952 10950 10951 10954 10956 10959 10963 10966 10971 10973 10978 10981 10983 10985 10988 10993 10997 11003 11007 11010 11012 11014 11014 11013 11008 11005 11003 10998 10993 10990 10988 10987 10987 10986 10984 10980
10933 10938 10944 10948 10951 10954 10951 10952 10950 10950 10952 10954 10957 10959 10962 10965 10969 10971 10973 10974 10975 10981 10984 10991 10997 11000 11004 11007 11007 11010 11009 11006 11003 11000 10995 10991 10986 10985 10983 10983 10981 10979 10977
10926 10930 10936 10941 10944 10948 10948 10947 10947 10947 10947 10951 10953 10956 10958 10960 10962 10964 10966 10968 10969 10972 10978 10984 10989 10994 10998 11001 11002 11004 11003 11003 11000 10998 10993 10990 10986 10983 10980 10978 10977 10976 10974
10916 10921 10926 10932 10934 10938 10941 10942 10941 10942 10943 10945 10949 10951 10951 10953 10954 10955 10960 10962 10963 10966 10972 10976 10982 10988 10993 10996 10997 10998 10998 10997 10995 10993 10991 10988 10983 10979 10977 10974 10972 10970 10968
10907 10913 10918 10924 10929 10932 10934 10936 10936 10936 10937 10937 10941 10944 10946 10945 10944 10949 10953 10957 10958 10961 10966 10970 10976 10981 10987 10990 10992 10993 10993 10991 10989 10989 10987 10985 10981 10976 10973 10969 10967 10965 10962
10900 10906 10912 10917 10922 10925 10927 10929 10930 10930 10931 10931 10934 10938 10940 10939 10940 10944 10947 10950 10952 10955 10960 10964 10969 10975 10980 10984 10985 10985 10986 10986 10985 10984 10982 10981 10978 10974 10970 10966 10963 10960 10958
10894 10901 10905 10911 10915 10917 10920 10923 10924 10924 10924 10924 10923 10926 10929 10933 10934 10936 10940 10942 10943 10947 10953 10958 10962 10967 10971 10975 10976 10978 10979 10979 10978 10978 10977 10976 10973 10970 10966 10962 10959 10956 10953
10890 10895 10899 10904 10908 10910 10913 10915 10917 10917 10917 10917 10916 10916 10918 10924 10928 10931 10933 10935 10938 10939 10944 10951 10958 10962 10965 10968 10968 10970 10972 10972 10972 10971 10971 10969 10968 10964 10961 10957 10953 10950 10946
10886 10890 10895 10899 10903 10906 10908 10910 10910 10910 10909 10908 10908 10909 10911 10915 10920 10923 10926 10928 10931 10934 10938 10945 10950 10954 10957 10961 10962 10963 10963 10963 10965 10965 10964 10962 10960 10957 10953 10949 10947 10942 10939
10890 10893 10896 10899 10901 10902 10902 10902 10901 10900 10900 10900 10901 10902 10902 10906 10910 10915 10918 10921 10925 10929 10932 10937 10940 10946 10950 10953 10955 10956 10956 10957 10958 10959 10958 10956 10952 10949 10945 10941 10937 10934 10930
10868 10893 10897 10900 10902 10902 10899 10897 10897 10894 10892 10892 10895 10896 10897 10899 10902 10905 10910 10915 10918 10921 10924 10929 10932 10935 10939 10943 10947 10947 10948 10948 10948 10951 10951 10950 10946 10943 10939 10936 10932 10927 10923
10853 10875 10880 10867 10886 10897 10897 10894 10888 10890 10889 10889 10889 10891 10891 10892 10894 10896 10901 10905 10907 10911 10915 10918 10922 10926 10929 10931 10933 10935 10937 10936 10937 10940 10942 10941 10940 10936 10932 10929 10926 10922 10917
10835 10844 10849 10850 10865 10883 10888 10884 10882 10883 10883 10884 10885 10885 10887 10887 10887 10889 10891 10891 10893 10899 10904 10907 10910 10913 10917 10920 10921 10923 10925 10926 10927 10929 10932 10930 10930 10928 10925 10921 10919 10917 10913
10820 10823 10826 10827 10822 10822 10835 10854 10861 10872 10875 10870 10870 10874 10877 10876 10873 10877 10880 10883 10886 10888 10891 10894 10898 10903 10905 10908 10911 10911 10913 10916 10917 10917 10918 10919 10918 10917 10916 10912 10910 10908 10905
10799 10803 10807 10807 10807 10808 10817 10832 10832 10844 10849 10848 10851 10858 10858 10861 10861 10859 10862 10868 10872 10874 10876 10879 10882 10886 10890 10893 10896 10900 10902 10903 10904 10904 10905 10905 10906 10905 10905 10904 10901 10899 10896
10782 10788 10794 10796 10793 10795 10799 10802 10813 10824 10828 10834 10836 10840 10848 10847 10848 10847 10849 10853 10861 10864 10866 10869 10869 10870 10874 10878 10882 10884 10886 10888 10889 10892 10892 10892 10894 10893 10891 10891 10890 10888 10886
10761 10764 10770 10774 10779 10782 10784 10789 10798 10807 10810 10813 10816 10821 10825 10829 10832 10831 10839 10843 10846 10852 10855 10858 10858 10858 10859 10862 10865 10868 10870 10872 10875 10877 10878 10879 10879 10879 10879 10877 10876 10876 10874
10744 10747 10753 10756 10760 10762 10764 10771 10777 10786 10796 10794 10799 10806 10804 10811 10815 10815 10821 10828 10835 10837 10839 10842 10844 10846 10847 10848 10850 10853 10854 10856 10861 10863 10864 10864 10863 10865 10866 10865 10863 10864 10863
10726 10731 10735 10741 10741 10741 10744 10748 10752 10760 10772 10775 10780 10787 10790 10794 10797 10799 10802 10810 10812 10816 10820 10823 10824 10826 10830 10831 10833 10836 10838 10842 10845 10848 10848 10849 10851 10851 10851 10850 10851 10851 10850
10704 10711 10715 10718 10725 10726 10728 10729 10732 10741 10750 10755 10762 10767 10774 10780 10782 10784 10788 10791 10795 10800 10800 10801 10804 10806 10810 10815 10819 10822 10824 10827 10829 10832 10834 10836 10838 10838 10840 10839 10840 10841 10840